This is the latest recevied weather packets stored in our database for station/object AH6GR. If no packets are shown the sender has not sent any weather packets the latest 10 day(s).
| Time | Temp. | Humidity | Pressure | Rain* | Wind** | Luminosity | Snow |
|---|---|---|---|---|---|---|---|
| 1777598423 | 23.33° C | 74% | 1017 hPa | 0 mm | - | - | - |
| 1777598136 | 23.33° C | 73% | 1016.3 hPa | 0 mm | - | - | - |
| 1777597823 | 23.33° C | 73% | 1017.1 hPa | 0 mm | - | - | - |
| 1777597223 | 23.33° C | 74% | 1017.1 hPa | 0 mm | - | - | - |
| 1777597215 | 22.78° C | 74% | 1016.3 hPa | 0 mm | - | - | - |
| 1777596623 | 23.33° C | 78% | 1017.3 hPa | 0 mm | - | - | - |
| 1777596364 | 22.78° C | 76% | 1016.4 hPa | 0 mm | - | - | - |
| 1777596023 | 23.33° C | 75% | 1017.3 hPa | 0 mm | - | - | - |
| 1777595454 | 22.78° C | 75% | 1016.6 hPa | 0 mm | - | - | - |
| 1777595423 | 23.33° C | 75% | 1017.5 hPa | 0 mm | - | - | - |
| 1777594823 | 23.33° C | 75% | 1017.6 hPa | 0 mm | - | - | - |
| 1777594517 | 23.33° C | 75% | 1016.7 hPa | 0 mm | - | - | - |
| 1777594223 | 23.89° C | 75% | 1017.7 hPa | 0 mm | - | - | - |
| 1777593658 | 23.33° C | 73% | 1016.9 hPa | 0 mm | - | - | - |
| 1777593623 | 23.89° C | 72% | 1017.8 hPa | 0 mm | - | - | - |
| 1777593023 | 23.89° C | 75% | 1017.8 hPa | 0 mm | - | - | - |
| 1777592742 | 23.33° C | 74% | 1017 hPa | 0 mm | - | - | - |
| 1777592423 | 23.33° C | 74% | 1018 hPa | 0 mm | - | - | - |
| 1777591823 | 23.89° C | 74% | 1018 hPa | 0 mm | - | - | - |
| 1777591803 | 23.33° C | 74% | 1017.1 hPa | 0 mm | - | - | - |
| 1777591223 | 23.89° C | 73% | 1018.1 hPa | 0 mm | - | - | - |
| 1777590947 | 23.33° C | 73% | 1017.3 hPa | 0 mm | - | - | - |
| 1777590623 | 23.33° C | 74% | 1018.1 hPa | 0 mm | - | - | - |
| 1777590026 | 23.89° C | 72% | 1017.3 hPa | 0 mm | - | - | - |
| 1777590023 | 23.89° C | 72% | 1018.3 hPa | 0 mm | - | - | - |
* Rain latest hour (hover to see other rain measurements)
** Current wind speed in m/s (hover to see current wind gust speed)